When you browse on this site, cookies collect data to enhance your experience and personalize the content and advertising you see.
Visit our Privacy Policy to learn more. By continuing to use the site, you agree to this use of cookies and data.
  • In United Kingdom
  • List of Countries
  • For 7 days
  • Water Temperature
  • Weather Map
  • Weather Widgets
  • user-avatar
    Login

    Hourly Weather Eisenstadt

    Today, 17 September, Tuesday

    Time Temperature Precipitation Wind Pressure Humidity
    00:00 +20°C° 0.1 mm 1 mps 723 mmHg 78%
    01:00 +20°C° 0 mm 1 mps 722 mmHg 80%
    02:00 +19°C° 0 mm 1 mps 722 mmHg 80%
    03:00 +19°C° 0 mm 1 mps 722 mmHg 79%
    04:00 +19°C° 0 mm 1 mps 722 mmHg 79%
    05:00 +19°C° 0 mm 1 mps 722 mmHg 79%
    06:00 +19°C° 0 mm 1 mps 722 mmHg 78%
    07:00 +18°C° 0 mm 0 mps 722 mmHg 77%
    08:00 +21°C° 0.1 mm 1 mps 722 mmHg 72%
    09:00 +22°C° 0.1 mm 1 mps 723 mmHg 67%
    10:00 +23°C° 0.1 mm 2 mps 723 mmHg 62%
    11:00 +24°C° 0.1 mm 2 mps 723 mmHg 57%
    12:00 +25°C° 0.1 mm 2 mps 722 mmHg 52%
    13:00 +26°C° 0.1 mm 2 mps 722 mmHg 47%
    14:00 +25°C° 0.1 mm 2 mps 722 mmHg 49%
    15:00 +25°C° 0.1 mm 3 mps 721 mmHg 52%
    16:00 +24°C° 0.1 mm 3 mps 721 mmHg 54%
    17:00 +21°C° 0.1 mm 3 mps 721 mmHg 60%
    18:00 +20°C° 0.1 mm 3 mps 721 mmHg 67%
    19:00 +18°C° 0.1 mm 3 mps 721 mmHg 73%
    20:00 +17°C° 0 mm 4 mps 721 mmHg 73%
    21:00 +17°C° 0 mm 4 mps 722 mmHg 73%
    22:00 +16°C° 0 mm 5 mps 722 mmHg 73%
    23:00 +15°C° 0 mm 5 mps 722 mmHg 72%

    Tomorrow, 18 September, Wednesday

    Time Temperature Precipitation Wind Pressure Humidity
    00:00 +14°C° 0 mm 5 mps 723 mmHg 71%
    01:00 +13°C° 0 mm 5 mps 723 mmHg 69%
    02:00 +12°C° 0 mm 5 mps 723 mmHg 70%
    03:00 +10°C° 0 mm 5 mps 724 mmHg 70%
    04:00 +10°C° 0 mm 6 mps 724 mmHg 70%
    05:00 +10°C° 0 mm 6 mps 725 mmHg 67%
    06:00 +9°C° 0 mm 6 mps 725 mmHg 63%
    07:00 +9°C° 0 mm 6 mps 726 mmHg 60%
    08:00 +10°C° 0 mm 6 mps 727 mmHg 54%
    09:00 +13°C° 0 mm 5 mps 727 mmHg 48%
    10:00 +14°C° 0 mm 5 mps 728 mmHg 42%
    11:00 +15°C° 0 mm 4 mps 728 mmHg 40%
    12:00 +17°C° 0 mm 4 mps 727 mmHg 38%
    13:00 +18°C° 0 mm 3 mps 727 mmHg 36%
    14:00 +17°C° 0 mm 3 mps 727 mmHg 39%
    15:00 +17°C° 0 mm 2 mps 727 mmHg 42%
    16:00 +16°C° 0 mm 2 mps 727 mmHg 45%
    17:00 +14°C° 0 mm 2 mps 727 mmHg 53%
    18:00 +12°C° 0 mm 1 mps 726 mmHg 61%
    19:00 +11°C° 0 mm 1 mps 726 mmHg 69%
    20:00 +10°C° 0 mm 1 mps 727 mmHg 68%
    21:00 +10°C° 0 mm 1 mps 727 mmHg 68%
    22:00 +10°C° 0 mm 1 mps 727 mmHg 68%
    23:00 +10°C° 0 mm 1 mps 727 mmHg 67%

    Day after tomorrow, 19 September, Thursday

    Time Temperature Precipitation Wind Pressure Humidity
    00:00 +9°C° 0 mm 1 mps 727 mmHg 66%
    01:00 +9°C° 0 mm 1 mps 727 mmHg 65%
    02:00 +8°C° 0 mm 1 mps 727 mmHg 67%
    03:00 +8°C° 0 mm 1 mps 727 mmHg 69%
    04:00 +7°C° 0 mm 1 mps 727 mmHg 71%
    05:00 +8°C° 0 mm 1 mps 727 mmHg 70%
    06:00 +8°C° 0 mm 2 mps 728 mmHg 68%
    07:00 +8°C° 0 mm 2 mps 728 mmHg 67%
    08:00 +10°C° 0 mm 2 mps 728 mmHg 62%
    09:00 +12°C° 0 mm 2 mps 729 mmHg 57%
    10:00 +13°C° 0 mm 3 mps 729 mmHg 51%
    11:00 +14°C° 0 mm 3 mps 729 mmHg 50%
    12:00 +14°C° 0 mm 3 mps 729 mmHg 48%
    13:00 +16°C° 0 mm 3 mps 729 mmHg 46%
    14:00 +14°C° 0 mm 3 mps 728 mmHg 47%
    15:00 +14°C° 0 mm 3 mps 728 mmHg 47%
    16:00 +14°C° 0 mm 4 mps 728 mmHg 48%
    17:00 +12°C° 0 mm 3 mps 728 mmHg 53%
    18:00 +10°C° 0 mm 3 mps 729 mmHg 58%
    19:00 +8°C° 0 mm 2 mps 729 mmHg 62%
    20:00 +8°C° 0 mm 2 mps 729 mmHg 65%
    21:00 +7°C° 0 mm 2 mps 730 mmHg 67%
    22:00 +7°C° 0 mm 2 mps 730 mmHg 70%
    23:00 +6°C° 0 mm 2 mps 730 mmHg 71%

    20 September, Friday

    Time Temperature Precipitation Wind Pressure Humidity
    00:00 +6°C° 0 mm 2 mps 730 mmHg 72%
    01:00 +6°C° 0 mm 2 mps 730 mmHg 72%
    02:00 +6°C° 0 mm 2 mps 730 mmHg 73%
    03:00 +6°C° 0 mm 1 mps 730 mmHg 73%
    04:00 +6°C° 0 mm 1 mps 730 mmHg 74%
    05:00 +7°C° 0 mm 1 mps 730 mmHg 71%
    06:00 +8°C° 0 mm 1 mps 730 mmHg 69%
    07:00 +8°C° 0 mm 1 mps 730 mmHg 67%
    08:00 +9°C° 0 mm 2 mps 730 mmHg 60%
    09:00 +12°C° 0 mm 2 mps 730 mmHg 53%
    10:00 +14°C° 0 mm 2 mps 731 mmHg 46%
    11:00 +15°C° 0 mm 2 mps 730 mmHg 43%
    12:00 +16°C° 0 mm 2 mps 730 mmHg 40%
    13:00 +17°C° 0 mm 2 mps 730 mmHg 36%
    14:00 +16°C° 0 mm 2 mps 729 mmHg 37%
    15:00 +16°C° 0 mm 2 mps 729 mmHg 38%
    16:00 +16°C° 0 mm 2 mps 729 mmHg 38%
    17:00 +14°C° 0 mm 2 mps 729 mmHg 43%
    18:00 +12°C° 0 mm 1 mps 729 mmHg 48%
    19:00 +10°C° 0 mm 1 mps 729 mmHg 53%
    20:00 +9°C° 0 mm 1 mps 729 mmHg 54%
    21:00 +9°C° 0 mm 1 mps 730 mmHg 56%
    22:00 +9°C° 0 mm 1 mps 730 mmHg 57%
    23:00 +8°C° 0 mm 1 mps 730 mmHg 59%

    21 September, Saturday

    Time Temperature Precipitation Wind Pressure Humidity
    00:00 +8°C° 0 mm 1 mps 730 mmHg 61%
    01:00 +8°C° 0 mm 1 mps 730 mmHg 63%
    02:00 +8°C° 0 mm 1 mps 730 mmHg 65%
    03:00 +7°C° 0 mm 1 mps 730 mmHg 66%
    04:00 +7°C° 0 mm 1 mps 730 mmHg 68%
    05:00 +8°C° 0 mm 1 mps 730 mmHg 66%
    06:00 +8°C° 0 mm 0 mps 730 mmHg 65%
    07:00 +8°C° 0 mm 0 mps 730 mmHg 64%
    08:00 +11°C° 0 mm 1 mps 730 mmHg 58%
    09:00 +13°C° 0 mm 2 mps 730 mmHg 53%
    10:00 +15°C° 0 mm 2 mps 730 mmHg 47%
    11:00 +16°C° 0 mm 3 mps 730 mmHg 44%
    12:00 +17°C° 0 mm 3 mps 730 mmHg 42%
    13:00 +18°C° 0 mm 3 mps 730 mmHg 39%
    14:00 +18°C° 0 mm 3 mps 729 mmHg 40%
    15:00 +18°C° 0 mm 4 mps 729 mmHg 41%
    16:00 +18°C° 0 mm 4 mps 729 mmHg 43%
    17:00 +16°C° 0 mm 3 mps 729 mmHg 49%
    18:00 +13°C° 0 mm 3 mps 729 mmHg 55%
    19:00 +12°C° 0 mm 2 mps 729 mmHg 61%
    20:00 +12°C° 0 mm 2 mps 729 mmHg 62%
    21:00 +10°C° 0 mm 2 mps 729 mmHg 63%
    22:00 +10°C° 0 mm 2 mps 729 mmHg 63%
    23:00 +9°C° 0 mm 2 mps 729 mmHg 64%

    22 September, Sunday

    Time Temperature Precipitation Wind Pressure Humidity
    00:00 +9°C° 0 mm 3 mps 729 mmHg 65%
    01:00 +9°C° 0 mm 3 mps 729 mmHg 66%
    02:00 +9°C° 0 mm 3 mps 729 mmHg 68%
    03:00 +8°C° 0 mm 3 mps 729 mmHg 69%
    04:00 +8°C° 0 mm 3 mps 728 mmHg 70%
    05:00 +8°C° 0 mm 3 mps 728 mmHg 68%
    06:00 +9°C° 0 mm 3 mps 728 mmHg 66%
    07:00 +9°C° 0 mm 3 mps 728 mmHg 64%
    08:00 +12°C° 0 mm 4 mps 729 mmHg 57%
    09:00 +14°C° 0 mm 5 mps 729 mmHg 50%
    10:00 +16°C° 0 mm 5 mps 729 mmHg 42%
    11:00 +17°C° 0 mm 5 mps 728 mmHg 40%
    12:00 +19°C° 0 mm 5 mps 728 mmHg 39%
    13:00 +20°C° 0 mm 5 mps 728 mmHg 37%
    14:00 +20°C° 0 mm 5 mps 727 mmHg 39%
    15:00 +20°C° 0 mm 5 mps 727 mmHg 41%
    16:00 +19°C° 0 mm 4 mps 726 mmHg 43%
    17:00 +17°C° 0 mm 4 mps 726 mmHg 49%
    18:00 +16°C° 0 mm 3 mps 726 mmHg 55%
    19:00 +13°C° 0 mm 3 mps 726 mmHg 61%
    20:00 +12°C° 0 mm 3 mps 726 mmHg 64%
    21:00 +12°C° 0 mm 2 mps 726 mmHg 66%
    22:00 +12°C° 0 mm 2 mps 726 mmHg 69%
    23:00 +10°C° 0 mm 2 mps 726 mmHg 70%
    Show more